Location: Unspecified
(54.1780°N, 0.0000°E)
Time: 10:31:35
(UTC+00:00)

S-56A Canister/Altair - Pass Details

Date: 24 June 2019
Orbit: 632 x 2500 km, 38.9° (Epoch: 16 July)

Event Time Altitude Azimuth Distance (km) Brightness Sun altitude
Rises 18:38:07 0° 256° (WSW) 4,389 12.4 13.8°
Reaches altitude 10° 18:42:30 10° 239° (WSW) 3,038 11.2 13.2°
Maximum altitude 18:46:55 18° 200° (SSW) 2,170 9.9 12.6°
Drops below altitude 10° 18:50:33 10° 160° (SSE) 2,400 9.7 12.1°
Sets 18:53:29 0° 139° (SE) 3,143 10.1 11.7°
